Regional Weather Roundup
Issued by NWS

Home | Current Version | Previous Version | Graphics & Text | Print | Product List | Glossary On
Versions: 1 2 3 4 5 6 7 8 9 10 11 12 13 14 15 16 17 18 19 20 21 22 23 24 25 26 27 28 29 30 31 32 33 34 35 36 37 38 39 40 41 42 43 44 45 46 47 48 49 50
000
ASUS45 KBOU 100410
RWRCO

WEATHER ROUNDUP FOR COLORADO
NATIONAL WEATHER SERVICE DENVER/BOULDER CO
1000 PM MDT WED JUL 09 2014

NOTE: "FAIR" INDICATES FEW OR NO CLOUDS BELOW 12000 FEET WITH NO
SIGNIFICANT WEATHER AND/OR OBSTRUCTIONS TO VISIBILITY.

COZ001>005-013-030-031-100500-
...NORTHWEST COLORADO...

CITY           SKY/WX    TMP DP  RH WIND       PRES   REMARKS
CRAIG          MOCLDY    67  44  43 SW8       30.16R
HAYDEN         MOCLDY    68  41  37 NW7       30.18R
MEEKER         CLOUDY    63  52  67 N9        30.17S
MOUNT WERNER   MOCLDY    59  32  36 NW8       30.50R
STEAMBOAT SPGS MOCLDY    64  45  51 CALM      30.20R
WALDEN         PTCLDY    59  41  51 S10       30.27S
$$

COZ006>008-011-100500-
...WEST CENTRAL VALLEYS...

CITY           SKY/WX    TMP DP  RH WIND       PRES   REMARKS
GRAND JUNCTION MOCLDY    81  44  27 E14       30.04R
MONTROSE       MOCLDY    75  44  33 SE7       30.16R
EAGLE          MOCLDY    72  41  33 SW6       30.20R
RIFLE          MOCLDY    73  44  35 E7        30.11F
DELTA          MOCLDY    79  44  29 CALM      30.11R
NUCLA          MOCLDY    68  55  64 E7        30.21F
$$

COZ017>023-064>068-100500-
...SOUTHWEST COLORADO...

CITY           SKY/WX    TMP DP  RH WIND       PRES   REMARKS
DURANGO        CLOUDY    63  53  70 E5        30.25R
CORTEZ         CLEAR     68  52  56 CALM      30.17R
PAGOSA SPRINGS CLOUDY    57  55  95 CALM      30.35R
TELLURIDE      NOT AVBL
WOLF CREEK PAS NOT AVBL
$$

COZ009-010-012-014-032>034-037-058>063-100500-
...CENTRAL COLORADO...

CITY           SKY/WX    TMP DP  RH WIND       PRES   REMARKS
ASPEN          MOCLDY    60  41  49 S7        30.31R
BUENA VISTA    CLOUDY    67  40  37 NE9       30.32R
COPPER MTN     MOCLDY    54  36  50 W6        30.64R
BERTHOUD PASS  FAIR      45  32  61 SW9       30.66S
COTTONWOOD PAS CLOUDY    63  37  39 CALM      30.48R
GUNNISON       NOT AVBL
KREMMLING      MOCLDY    63  39  42 CALM      30.27R
LEADVILLE      MOCLDY    54  35  48 NW3       30.46R
MONARCH PASS   MOCLDY    50  37  62 SW23      30.73R
SALIDA         CLOUDY   N/A N/A N/A SW13G23   30.34R
SUNLIGHT       MOCLDY    55  39  54 CALM      30.55R
WILKERSON PASS CLOUDY    50  36  57 S12G22    30.59S
$$

COZ069>075-100500-
...SAN LUIS VALLEY/SANGRE DE CRISTO MOUNTAINS...

CITY           SKY/WX    TMP DP  RH WIND       PRES   REMARKS
ALAMOSA        MOCLDY    60  45  57 S6        30.29R
LA VETA PASS   MOCLDY    50  41  71 SW5       30.47S
SAGUACHE       NOT AVBL
$$

COZ035-036-038>040-100500-
...NORTHERN COLORADO FRONT RANGE...

CITY           SKY/WX    TMP DP  RH WIND       PRES   REMARKS
DENVER INTL AP MOCLDY    76  44  32 SW9       30.04R
DMNS CITY PARK   N/A     75  44  33 S3G12     30.03S
AURORA         MOCLDY    74  46  37 SW14      30.07S
FRONT RANGE AP NOT AVBL
ERIE MUNI ARPT CLOUDY    74  42  31 CALM      30.00F
BOULDER MUN AP CLOUDY    77  43  29 W15G31    30.01S
CENTENNIAL     CLOUDY    75  43  31 SW14      30.08F
BROOMFIELD     MOCLDY    75  43  31 SW20G29   30.05F
FORT COLLINS   PTCLDY    70  48  46 S6        30.00R
LONGMONT       PTCLDY    77  43  29 W3        30.01S
$$

COZ041-046-047-076>085-087-088-100500-
...PIKES PEAK/PALMER DIVIDE AND SOUTHERN FOOTHILLS...

CITY           SKY/WX    TMP DP  RH WIND       PRES   REMARKS
COLO. SPRINGS  MOCLDY    77  40  26 NW21G31   30.13S
A. F. ACADEMY  MOCLDY    73  39  29 SW8       30.15F
ELLICOTT       NOT AVBL
FALCON         MOCLDY    72  38  28 W17G24    30.19F
FORT CARSON    CLOUDY    78  38  24 W13       30.08S
LIMON          PTCLDY    68  51  54 SE12      30.09R
MONUMENT HILL  CLOUDY    66  37  34 W9        30.19S
TRINIDAD       PTCLDY    73  48  41 NE10      30.13R
$$

COZ042>045-048>051-090-091-100500-
...NORTHEAST COLORADO...

CITY           SKY/WX    TMP DP  RH WIND       PRES   REMARKS
GREELEY ARPT   CLEAR     73  48  40 SW7       29.99S
AKRON          PTCLDY    68  54  60 S12       29.99R
BURLINGTON     CLOUDY    70  51  51 S23G39    29.98F
WRAY           PTCLDY    73  50  44 SE6       29.94R
STERLING       PTCLDY    68  55  64 W5        29.94R
HOLYOKE        PTCLDY    73  63  68 S6        29.94R
FORT MORGAN    PTCLDY    68  52  56 SE6       29.98S
$$

COZ086-089-092>099-100500-
...SOUTHEAST COLORADO...

CITY           SKY/WX    TMP DP  RH WIND       PRES   REMARKS
PUEBLO         PTCLDY    79  45  29 N10       29.98R
LA JUNTA       PTCLDY    79  53  40 S22G31    29.98R
LAMAR          CLEAR     81  49  32 SW21G28   29.95R
SPRINGFIELD      N/A     76  49  38 SW20G28   30.04R
$$


USA.gov is the U.S. government's official web portal to all federal, state and local government web resources and services.